Grand Marais, MN

11:10 AM CDT on July 22, 2017 (GMT -0500)
Grand Marais

Weather History for KGNA - June, 2014

Change the Weather History Date:

Thursday, June 19, 2014

  Actual Average (KCKC) Record (KCKC)
Temperature  
Mean Temperature 54 °F -  
Max Temperature 62 °F 66 °F 136 °F (1997)
Min Temperature 46 °F 47 °F 33 °F (2013)
Degree Days  
Heating Degree Days 11    
Growing Degree Days 4 (Base 50)    
Moisture  
Dew Point 41 °F    
Average Humidity 64    
Maximum Humidity 83    
Minimum Humidity 47    
Precipitation  
Precipitation 0.00 in - - ()
Sea Level Pressure  
Sea Level Pressure 30.14 in    
Wind  
Wind Speed 11 mph (ENE)    
Max Wind Speed 18 mph    
Max Gust Speed 28 mph    
Averages and records for this station are not official NWS values.
T = Trace of Precipitation, MM = Missing Value Source: NWS Daily Summary

Daily Weather History Graph

Daily Weather History Graph

Search for Another Location

Airport or City:

Trip Planner

Search our weather history database for the weather conditions in past years. The results will help you decide how hot, cold, wet, or windy it might be!

Date:

Astronomy

Jun. 19, 2014 Rise Set
Actual Time 5:02 AM CDT 9:02 PM CDT
Civil Twilight 4:21 AM CDT 9:43 PM CDT
Nautical Twilight 3:24 AM CDT 10:40 PM CDT
Astronomical Twilight 1:51 AM CDT 12:14 AM CDT
Moon 12:38 AM CDT (6/19) 1:04 PM CDT (6/19)
Length of Visible Light 17h 22m
Length of Day
16h 00m
Waning Gibbous, 51% of the Moon is Illuminated
Jun 19
Waning Gibbous
Jun 19
Last Quarter
Jun 27
New
Jul 5
First Quarter
Jul 12
Full

Hourly Weather History & Observations

Time (CDT) Temp. Windchill Dew Point Humidity Pressure Visibility Wind Dir Wind Speed Gust Speed Precip Events Conditions
12:56 AM 46.9 °F - 42.1 °F 83% 30.15 in - ENE 4.6 mph - N/A   Unknown
1:56 AM 46.0 °F 43.9 °F 39.9 °F 79% 30.15 in - ENE 4.6 mph - N/A   Unknown
2:56 AM 46.0 °F 42.5 °F 39.0 °F 76% 30.14 in - ENE 6.9 mph - N/A   Unknown
3:56 AM 50.0 °F - 39.9 °F 68% 30.14 in - ENE 9.2 mph - N/A   Unknown
5:56 AM 53.1 °F - 39.0 °F 59% 30.18 in - ENE 10.4 mph - N/A   Unknown
6:56 AM 53.1 °F - 39.9 °F 61% 30.17 in - ENE 13.8 mph 23.0 mph N/A   Unknown
7:56 AM 51.1 °F - 39.0 °F 63% 30.22 in - ENE 11.5 mph - N/A   Unknown
8:56 AM 51.1 °F - 39.0 °F 63% 30.22 in - ENE 11.5 mph 21.9 mph N/A   Unknown
10:56 AM 51.1 °F - 42.1 °F 71% 30.19 in - ENE 15.0 mph 25.3 mph N/A   Unknown
11:56 AM 51.1 °F - 42.1 °F 71% 30.19 in - ENE 13.8 mph - N/A   Unknown
12:56 PM 50.0 °F - 41.0 °F 71% 30.15 in - ENE 13.8 mph 23.0 mph N/A   Unknown
1:56 PM 50.0 °F - 39.9 °F 68% 30.14 in - ENE 13.8 mph 21.9 mph N/A   Unknown
2:56 PM 51.1 °F - 39.9 °F 66% 30.14 in - ENE 17.3 mph 26.5 mph N/A   Unknown
3:56 PM 52.0 °F - 41.0 °F 66% 30.09 in - ENE 17.3 mph 25.3 mph N/A   Unknown
4:56 PM 55.0 °F - 44.1 °F 67% 30.10 in - ENE 16.1 mph - N/A   Unknown
5:56 PM 55.9 °F - 44.1 °F 64% 30.12 in - ENE 15.0 mph 23.0 mph N/A   Unknown
6:56 PM 61.0 °F - 46.0 °F 58% 30.10 in - ENE 18.4 mph 27.6 mph N/A   Unknown
7:56 PM 62.1 °F - 45.0 °F 53% 30.09 in - ENE 16.1 mph 26.5 mph N/A   Unknown
8:56 PM 61.0 °F - 44.1 °F 54% 30.10 in - ENE 15.0 mph 25.3 mph N/A   Unknown
9:56 PM 60.1 °F - 41.0 °F 49% 30.10 in - ENE 15.0 mph 24.2 mph N/A   Unknown
10:56 PM 57.9 °F - 37.9 °F 47% 30.09 in - ENE 15.0 mph - N/A   Unknown
11:56 PM 55.9 °F - 36.0 °F 47% 30.08 in - ENE 10.4 mph - N/A   Unknown